This demonstration page uses our WeatherBlox Daily Observations layout. Learn more.

Left ArrowRight Arrow

Hourly Observations for May 4, 2020

Temp ( °F °C ) Dew Point ( °F °C ) Humidity (%) Winds ( mph kmh ) Pressure ( in mb ) Visibility ( mi km ) Precip ( " mm )
12:15 am 00:15 Partly Cloudy 61 16.2 49 9.5 65 65 SE 8 13 29.91 1013 10 16.0934 0 0
12:35 am 00:35 Clear 60 15.6 49 9.5 67 67 SE 9 15 29.89 1012 10 16.0934 0 0
12:55 am 00:55 Clear 61 16 48 8.7 62 62 SE 8 13 29.9 1013 10 16.0934 0 0
1:15 am 01:15 Partly Cloudy with Drizzle 61 16 47 8.5 61 61 SE 10 17 29.88 1012 10 16.0934 0 0
1:35 am 01:35 Mostly Cloudy 61 16.3 46 7.8 57 57 SSE 8 13 29.91 1013 10 16.0934 0 0
1:55 am 01:55 Cloudy with Light Rain 61 16.1 48 9 63 63 ESE 5 7 29.92 1013 10 16.0934 0 0
2:15 am 02:15 Cloudy with Rain 60 15.5 49 9.7 69 69 S 5 7 29.96 1015 7 11.26538 0.02 0.508
2:35 am 02:35 Cloudy with Rain 57 14.1 52 10.9 81 81 ESE 12 19 29.93 1013 5 8.0467 0.11 2.794
2:55 am 02:55 Cloudy with Light Rain 57 13.8 52 11.1 84 84 ESE 12 19 29.9 1013 10 16.0934 0.12 3.048
3:15 am 03:15 Cloudy 56 13.6 52 11 84 84 ESE 17 28 29.85 1011 10 16.0934 0 0
3:35 am 03:35 Cloudy with Light Rain 56 13.5 52 11 85 85 ESE 13 20 29.87 1012 10 16.0934 0.01 0.254
3:55 am 03:55 Cloudy with Rain 56 13.2 52 11.1 87 87 SE 12 19 29.89 1012 7 11.26538 0.04 1.016
4:15 am 04:15 Cloudy with Rain 56 13.1 52 11 87 87 SSE 8 13 29.91 1013 10 16.0934 0.03 0.762
4:35 am 04:35 Cloudy with Light Rain 55 12.9 52 11 88 88 SE 15 24 29.88 1012 7 11.26538 0.08 2.032
4:55 am 04:55 Partly Cloudy 55 12.7 51 10.7 88 88 ESE 15 24 29.87 1011 10 16.0934 0.09 2.286
5:15 am 05:15 Partly Cloudy 55 12.9 50 10.1 83 83 ESE 14 22 29.87 1011 10 16.0934 0 0
5:35 am 05:35 Mostly Cloudy 55 13 50 9.9 82 82 ESE 9 15 29.88 1012 10 16.0934 0 0
5:55 am 05:55 Cloudy with Thunderstorms 55 13 50 10.1 83 83 SE 3 6 29.94 1014 10 16.0934 0 0
6:15 am 06:15 Cloudy with Rain 54 12.2 51 10.4 89 89 NNE 6 9 29.93 1014 7 11.26538 0.05 1.27
6:35 am 06:35 Cloudy with Light Rain 54 12.1 51 10.8 92 92 WNW 12 19 30 1016 10 16.0934 0.06 1.524
6:55 am 06:55 Cloudy with Heavy Rain 54 12 52 11 94 94 NE 6 9 29.93 1013 3 4.82802 0.14 3.556
7:15 am 07:15 Cloudy 53 11.8 52 11.1 96 96 NE 7 11 29.91 1013 5 8.0467 0.01 0.254
7:35 am 07:35 Mostly Cloudy 53 11.5 52 10.9 96 96 E 12 19 29.88 1012 7 11.26538 0.01 0.254
7:55 am 07:55 Partly Cloudy 53 11.5 51 10.8 96 96 ENE 13 20 29.88 1012 7 11.26538 0.01 0.254
8:15 am 08:15 Mostly Cloudy with Nearby Thunderstorms 53 11.5 51 10.7 95 95 ENE 13 20 29.88 1012 10 16.0934 0 0
8:35 am 08:35 Cloudy 53 11.5 52 10.9 96 96 ENE 13 20 29.88 1012 10 16.0934 0 0
8:55 am 08:55 Partly Cloudy 54 12.3 53 11.6 96 96 E 15 24 29.87 1012 10 16.0934 0 0
9:15 am 09:15 Mostly Cloudy 55 12.5 52 11.2 92 92 E 18 30 29.85 1011 10 16.0934 0 0
9:35 am 09:35 Partly Cloudy 56 13.5 52 11.3 87 87 E 17 28 29.86 1011 10 16.0934 0 0
9:55 am 09:55 Cloudy 57 14.1 52 11.2 83 83 E 14 22 29.86 1011 10 16.0934 0 0
10:15 am 10:15 Cloudy 58 14.5 51 10.4 77 77 E 15 24 29.84 1011 10 16.0934 0 0
10:35 am 10:35 Cloudy 58 14.5 50 9.9 74 74 E 16 26 29.85 1011 10 16.0934 0 0
10:55 am 10:55 Cloudy 59 15 49 9.4 69 69 E 20 31 29.86 1011 10 16.0934 0 0
11:15 am 11:15 Mostly Cloudy 60 15.7 49 9.7 68 68 E 20 31 29.85 1011 10 16.0934 0 0
11:35 am 11:35 Mostly Cloudy 61 16 48 8.7 62 62 E 22 35 29.84 1011 10 16.0934 0 0
11:55 am 11:55 Mostly Cloudy 60 15.4 47 8.3 63 63 ESE 15 24 29.88 1012 10 16.0934 0 0
12:15 pm 12:15 Cloudy 58 14.5 47 8.6 68 68 E 9 15 29.89 1012 10 16.0934 0 0
12:35 pm 12:35 Cloudy 59 15 47 8.5 65 65 E 12 19 29.88 1012 10 16.0934 0 0
12:55 pm 12:55 Cloudy 59 15 48 8.7 66 66 ENE 9 15 29.88 1012 10 16.0934 0 0
1:15 pm 13:15 Cloudy 59 14.9 47 8.5 66 66 ENE 5 7 29.88 1012 10 16.0934 0 0
1:35 pm 13:35 Cloudy 59 15.2 46 7.9 62 62 ENE 9 15 29.87 1011 10 16.0934 0 0
1:55 pm 13:55 Cloudy 60 15.6 45 7.1 57 57 ENE 9 15 29.86 1011 10 16.0934 0 0
2:15 pm 14:15 Cloudy 61 16.2 45 7.1 55 55 ENE 12 19 29.87 1011 10 16.0934 0 0
2:35 pm 14:35 Mostly Cloudy 61 16.1 45 7.1 55 55 NE 10 17 29.87 1012 10 16.0934 0 0
2:55 pm 14:55 Mostly Cloudy 61 16 44 6.9 55 55 NE 5 7 29.88 1012 10 16.0934 0 0
3:15 pm 15:15 Cloudy 61 15.9 44 6.7 55 55 NE 9 15 29.88 1012 10 16.0934 0 0
3:35 pm 15:35 Cloudy 62 16.9 46 7.7 55 55 ENE 8 13 29.87 1012 10 16.0934 0 0
3:55 pm 15:55 Cloudy 61 16.2 45 7.4 56 56 ENE 8 13 29.88 1012 10 16.0934 0 0
4:15 pm 16:15 Cloudy 61 16.1 45 7.1 55 55 NNE 9 15 29.87 1012 10 16.0934 0 0
4:35 pm 16:35 Mostly Cloudy 62 16.4 45 7.3 55 55 NNE 7 11 29.88 1012 10 16.0934 0 0
4:55 pm 16:55 Cloudy 61 16.3 46 8 58 58 NNE 10 17 29.88 1012 10 16.0934 0 0
5:15 pm 17:15 Mostly Cloudy 61 16.3 46 7.8 57 57 N 6 9 29.89 1012 10 16.0934 0 0
5:35 pm 17:35 Partly Cloudy 60 15.6 46 7.7 60 60 N 7 11 29.91 1013 10 16.0934 0 0
5:55 pm 17:55 Partly Cloudy 62 16.4 47 8.1 58 58 N 10 17 29.91 1013 10 16.0934 0 0
6:15 pm 18:15 Mostly Cloudy 62 16.9 46 8 56 56 NNW 9 15 29.91 1013 10 16.0934 0 0
6:35 pm 18:35 Cloudy 60 15.6 46 8 61 61 NNW 13 20 29.93 1014 10 16.0934 0 0
6:55 pm 18:55 Cloudy 57 13.8 51 10.4 80 80 NNW 20 31 29.96 1015 10 16.0934 0 0
7:15 pm 19:15 Cloudy 55 12.9 50 10 83 83 N 21 33 29.98 1015 10 16.0934 0 0
7:35 pm 19:35 Cloudy 55 12.5 49 9.7 83 83 N 18 30 30 1016 10 16.0934 0 0
7:55 pm 19:55 Cloudy 55 12.5 49 9.5 82 82 NNW 14 22 30.01 1016 10 16.0934 0 0
8:15 pm 20:15 Cloudy 55 12.7 49 9.2 79 79 N 17 28 30.02 1017 10 16.0934 0 0
8:35 pm 20:35 Partly Cloudy 54 12.1 48 8.7 80 80 NNW 16 26 30.03 1017 10 16.0934 0 0
8:55 pm 20:55 Clear 53 11.8 48 9 83 83 N 12 19 30.03 1017 10 16.0934 0 0
9:15 pm 21:15 Clear 53 11.6 48 8.7 83 83 NNW 13 20 30.06 1018 10 16.0934 0 0
9:35 pm 21:35 Clear 52 11.2 47 8.3 83 83 NNW 12 19 30.07 1018 10 16.0934 0 0
9:55 pm 21:55 Clear 52 11 46 8 82 82 NNW 12 19 30.08 1019 10 16.0934 0 0
10:15 pm 22:15 Clear 51 10.8 45 7 78 78 NNW 10 17 30.09 1019 10 16.0934 0 0
10:35 pm 22:35 Clear 50 10.2 44 6.4 78 78 NNW 10 17 30.09 1019 10 16.0934 0 0
10:55 pm 22:55 Clear 49 9.7 43 6.1 78 78 NNW 8 13 30.09 1019 10 16.0934 0 0
11:15 pm 23:15 Clear 48 9.1 43 5.9 81 81 NW 7 11 30.1 1019 10 16.0934 0 0
11:35 pm 23:35 Clear 47 8.5 43 5.9 84 84 NNW 7 11 30.11 1020 10 16.0934 0 0
11:55 pm 23:55 Clear 47 8.6 42 5.6 82 82 NW 7 11 30.11 1019 10 16.0934 0 0

Powered by AerisWeather